Regional Weather Roundup
Issued by NWS Bismarck, ND

Home | Current Version | Previous Version | Text Only | Print | Product List | Glossary On
Versions: 1 2 3 4 5 6 7 8 9 10 11 12 13 14 15 16 17 18 19 20 21 22 23 24 25 26 27 28 29 30 31 32 33 34 35 36 37 38 39 40 41 42 43 44 45 46 47 48 49 50
000
ASUS43 KBIS 040910
RWRBIS

NWR BROADCAST TEXT
NATIONAL WEATHER SERVICE BISMARCK ND
400 AM CDT WED MAY 04 2016

NOTE: "FAIR" INDICATES FEW OR NO CLOUDS BELOW 12,000 FEET WITH NO
SIGNIFICANT WEATHER AND/OR OBSTRUCTIONS TO VISIBILITY.


CITY           SKY/WX    TMP DP  RH WIND       PRES   REMARKS
WILLISTON      CLEAR     43  38  82 CALM      30.07S
MINOT          CLEAR     47  28  47 CALM      30.08S
MINOT AFB      CLEAR     40  31  69 S3        30.07S
BISMARCK       CLEAR     37  33  85 CALM      30.11R
DICKINSON      CLEAR     42  34  73 S6        30.09S
GARRISON         N/A     43  31  62 CALM      30.09S
HETTINGER ARPT CLEAR     38  32  79 CALM      30.13R
JAMESTOWN      CLEAR     36  30  79 NW6       30.06S
BEACH          FAIR      46  39  76 S7        30.12S
CARRINGTON     FAIR      39  28  65 NW6       30.10S
HAZEN          FAIR      32  30  93 CALM      30.12S
LINTON         FAIR      36  32  87 NE3       30.12R
MANDAN         FAIR      43  28  56 SW3       30.11S
OAKES            N/A    N/A N/A N/A MISG        N/A
RUGBY          FAIR      36  30  80 CALM      30.09S
STANLEY        FAIR      43  39  87 CALM      30.10S
TIOGA          FAIR      46  34  61 CALM      30.12S
WATFORD CITY   FAIR      41  37  87 CALM      30.09S
$$

CITY           SKY/WX    TMP DP  RH WIND       PRES   REMARKS
GRAND FORKS    CLEAR     37  30  75 NW7       30.05R
GRAND FORKS AF CLEAR     39  32  75 N8        30.05R
DEVILS LAKE    CLEAR     36  31  82 N6        30.08S
FARGO          CLEAR     40  28  62 N8        30.03R
CANDO          FAIR      34  28  80 NW5       30.11R
CAVALIER       FAIR      39  32  75 CALM      30.06F
GRAFTON        FAIR      39  32  75 NW9       30.07S
GWINNER        FAIR      43  32  65 NW9       30.05R
LANGDON        FAIR      32  27  80 N3        30.07S
ROLLA          FAIR      32  28  86 W6        30.09S
WALHALLA       FAIR      36  36 100 W5        30.07F
$$

CITY           SKY/WX    TMP DP  RH WIND       PRES   REMARKS
ABERDEEN       CLEAR     40  31  70 NW8       30.06R
MOBRIDGE       CLEAR     39  32  76 CALM      30.07S
BUFFALO          N/A     52  37  56 W7        30.06S
RAPID CITY     CLEAR     47  37  68 NW9       30.13R
GLASGOW        CLEAR     51  39  63 E12       30.03F
SIDNEY         PTCLDY    45  39  81 CALM      30.07S
WOLF POINT     CLEAR     48  40  73 CALM      30.05R
GLENDIVE       CLEAR     48  37  66 CALM      30.11R
MILES CITY     CLEAR     54  40  59 SE7       30.07S
BAKER          CLEAR     50  38  63 S7        30.11S
$$

CITY           SKY/WX    TMP DP  RH WIND       PRES   REMARKS
BILLINGS       CLEAR     54  38  54 CALM      30.09S
GREAT FALLS    CLEAR     46  37  71 SW10      30.02F
REGINA         CLEAR     50  36  57 SE12      30.01S
ESTEVAN        CLEAR     41  34  75 E7        30.05S
$$





USA.gov is the U.S. government's official web portal to all federal, state and local government web resources and services.